Preview of NWS' New Version of Forecast
This preview is not operational and should not be used for support decisions.

Regional Weather Roundup (RWR)

Issued by National Weather Service (NWS)

                            
360 
ASUS44 KBMX 200510
RWRAL 
             
ALABAMA REGIONAL WEATHER ROUNDUP
NATIONAL WEATHER SERVICE BIRMINGHAM AL
1200 AM CDT WED JUN 20 2018

NOTE: "FAIR" INDICATES FEW OR NO CLOUDS BELOW 12,000 FEET
WITH NO SIGNIFICANT WEATHER AND/OR OBSTRUCTIONS TO VISIBILITY.

THE REMARK "TC" DENOTES TEMPERATURE IN DEGREES CELSIUS.

ALZ001>011-014-016>018-020-200600-
NORTH ALABAMA
  
CITY           SKY/WX    TMP DP  RH WIND       PRES   REMARKS
MUSCLE SHOALS  FAIR      75  72  90 CALM      30.02S                  
HUNTSVILLE     MOCLDY    77  70  79 CALM      30.01F                  
DECATUR        FAIR      74  69  85 CALM      30.01F                  
HALEYVILLE     NOT AVBL                                               
GADSDEN        FAIR      72  72 100 MISG      30.01S                  
$$
 
ALZ012-013-022-023-030>036-040>044-200600-
WEST CENTRAL ALABAMA
  
CITY           SKY/WX    TMP DP  RH WIND       PRES   REMARKS
TUSCALOOSA     FAIR      78  71  79 CALM      30.00R                  
DEMOPOLIS      FAIR      76  73  93 CALM      29.98F                  
$$
 
ALZ015-024>026-033>036-041>044-200600-
CENTRAL ALABAMA
  
CITY           SKY/WX    TMP DP  RH WIND       PRES   REMARKS
BIRMINGHAM     FAIR      76  70  82 CALM      30.03S                  
MONTGOMERY     FAIR      77  73  87 W3        29.98S                  
SHELBY CO ARPT FAIR      77  72  84 CALM      30.01R                  
MAXWELL AFB    FAIR      77  74  90 CALM      29.97S                  
GREENVILLE     FAIR      76  71  85 CALM      29.98F                  
SELMA          FAIR      75  73  94 CALM      29.98S                  
PRATTVILLE     FAIR      75  73  95 CALM      29.98S                  
BESSEMER       FAIR      78  72  81 N3        30.02F                  
TALLADEGA      FAIR      74  74  98 CALM      30.01S                  
PELL CITY      CLEAR     72  72 100 CALM      30.01S                  
MARION         FAIR      77  77 100 CALM      29.98S                  
SYLACAUGA      MOCLDY    73  73 100 CALM      30.01S                  
$$
 
ALZ019-021-028-029-037-038-045>048-200600-
EAST CENTRAL ALABAMA
  
CITY           SKY/WX    TMP DP  RH WIND       PRES   REMARKS
ANNISTON       FAIR      74  71  91 CALM      30.01R                  
ALEXANDER CITY FAIR      74  74 100 CALM      30.00F                  
AUBURN         FAIR      77  71  82 N6        30.01S                  
$$
 
ALZ051>064-200600-
SOUTHWEST ALABAMA
  
CITY           SKY/WX    TMP DP  RH WIND       PRES   REMARKS
MOBILE         FAIR      77  74  90 CALM      30.00R                  
BROOKLEY FIELD FAIR      80  77  90 CALM      30.00S                  
EVERGREEN      FAIR      75  73  93 CALM      29.98F                  
$$

ALZ049-050-065>069-200600-
SOUTHEAST ALABAMA
  
CITY           SKY/WX    TMP DP  RH WIND       PRES   REMARKS
DOTHAN         FAIR      82  70  66 NW6       30.00S                  
OZARK          FAIR      78  72  80 NW5       29.97S                  
TROY           FAIR      73  71  93 CALM      29.99S                  
EUFAULA        FAIR      76  74  93 CALM      29.95F                  
$$